CCA1507 ZBAA-ZSSS

Flight info

Callsign CCA1507
Flight time N/A
Altitude 37100
Route ELKUR2G ELKUR W40 YQG W142 DALIM A593 DPX A470 DALNU W166 ZJ W167 SASAN SAS61A
Aircraft B77W/H-SDE1E2E3FGHIJ2J3J4J5M1RWXY/LB1D1

Departure

Time 2026-05-04 12:44
Airport Beijing Capital International Airport (ZBAA)

Arrival

Time N/A
Airport Shanghai Hongqiao International Airport (ZSSS)
Time Latitude Longitude Altitude Speed Heading
2026-05-04 12:06 40.05401 116.61450 125 ft 0 kts 203°
2026-05-04 12:24 40.05406 116.61453 124 ft 3 kts 203°
2026-05-04 12:25 40.05427 116.61464 124 ft 3 kts 203°
2026-05-04 12:25 40.05448 116.61476 123 ft 3 kts 203°
2026-05-04 12:25 40.05467 116.61487 123 ft 1 kts 203°
2026-05-04 12:25 40.05485 116.61499 123 ft 3 kts 226°
2026-05-04 12:26 40.05496 116.61518 123 ft 3 kts 232°
2026-05-04 12:26 40.05512 116.61537 123 ft 3 kts 204°
2026-05-04 12:26 40.05534 116.61548 123 ft 3 kts 202°
2026-05-04 12:26 40.05537 116.61550 123 ft 0 kts 203°
2026-05-04 12:29 40.05536 116.61549 123 ft 0 kts 203°
2026-05-04 12:29 40.05533 116.61547 123 ft 1 kts 203°
2026-05-04 12:29 40.05507 116.61531 123 ft 7 kts 211°
2026-05-04 12:30 40.05501 116.61455 126 ft 11 kts 291°
2026-05-04 12:30 40.05530 116.61365 126 ft 11 kts 293°
2026-05-04 12:30 40.05563 116.61279 125 ft 11 kts 304°
2026-05-04 12:30 40.05620 116.61210 124 ft 12 kts 328°
2026-05-04 12:31 40.05712 116.61168 124 ft 15 kts 352°
2026-05-04 12:31 40.05819 116.61151 124 ft 15 kts 353°
2026-05-04 12:31 40.05924 116.61135 126 ft 15 kts 353°
2026-05-04 12:31 40.06030 116.61118 125 ft 15 kts 353°
2026-05-04 12:32 40.06135 116.61102 126 ft 15 kts 353°
2026-05-04 12:32 40.06320 116.61068 126 ft 7 kts 332°
2026-05-04 12:32 40.06335 116.61011 125 ft 7 kts 271°
2026-05-04 12:33 40.06329 116.60912 126 ft 18 kts 262°
2026-05-04 12:33 40.06311 116.60722 128 ft 22 kts 263°
2026-05-04 12:33 40.06293 116.60527 124 ft 22 kts 263°
2026-05-04 12:33 40.06275 116.60331 128 ft 22 kts 263°
2026-05-04 12:34 40.06262 116.60185 123 ft 8 kts 263°
2026-05-04 12:34 40.06287 116.60140 124 ft 7 kts 338°
2026-05-04 12:34 40.06335 116.60128 125 ft 7 kts 353°
2026-05-04 12:34 40.06399 116.60117 126 ft 12 kts 353°
2026-05-04 12:35 40.06505 116.60101 124 ft 17 kts 353°
2026-05-04 12:35 40.06619 116.60083 126 ft 17 kts 352°
2026-05-04 12:35 40.06734 116.60064 124 ft 17 kts 353°
2026-05-04 12:35 40.06848 116.60047 126 ft 17 kts 353°
2026-05-04 12:36 40.06963 116.60029 125 ft 17 kts 353°
2026-05-04 12:36 40.07077 116.60011 124 ft 17 kts 353°
2026-05-04 12:36 40.07192 116.59993 126 ft 17 kts 353°
2026-05-04 12:36 40.07305 116.59975 125 ft 17 kts 353°
2026-05-04 12:37 40.07419 116.59958 126 ft 17 kts 353°
2026-05-04 12:37 40.07534 116.59940 125 ft 17 kts 353°
2026-05-04 12:37 40.07648 116.59921 126 ft 17 kts 353°
2026-05-04 12:37 40.07763 116.59903 126 ft 17 kts 353°
2026-05-04 12:38 40.07877 116.59885 125 ft 17 kts 353°
2026-05-04 12:38 40.07992 116.59868 126 ft 17 kts 353°
2026-05-04 12:38 40.08106 116.59850 126 ft 17 kts 352°
2026-05-04 12:38 40.08219 116.59832 127 ft 17 kts 353°
2026-05-04 12:39 40.08331 116.59814 126 ft 17 kts 353°
2026-05-04 12:39 40.08445 116.59796 126 ft 17 kts 353°
2026-05-04 12:39 40.08559 116.59778 126 ft 17 kts 353°
2026-05-04 12:39 40.08673 116.59761 127 ft 17 kts 353°
2026-05-04 12:40 40.08787 116.59743 126 ft 17 kts 353°
2026-05-04 12:40 40.08901 116.59725 126 ft 16 kts 353°
2026-05-04 12:40 40.08966 116.59703 124 ft 7 kts 314°
2026-05-04 12:40 40.08976 116.59646 128 ft 7 kts 266°
2026-05-04 12:41 40.08967 116.59577 125 ft 10 kts 245°
2026-05-04 12:41 40.08909 116.59507 125 ft 12 kts 207°
2026-05-04 12:41 40.08835 116.59501 125 ft 0 kts 174°
2026-05-04 12:43 40.08822 116.59503 126 ft 12 kts 174°
2026-05-04 12:43 40.08558 116.59541 127 ft 76 kts 173°
2026-05-04 12:43 40.07777 116.59667 126 ft 151 kts 173°
2026-05-04 12:43 40.06558 116.59860 296 ft 191 kts 174°
2026-05-04 12:44 40.05181 116.60061 857 ft 205 kts 176°
2026-05-04 12:44 40.03809 116.60257 1948 ft 195 kts 178°
2026-05-04 12:44 40.02379 116.60481 2421 ft 220 kts 177°
2026-05-04 12:44 40.00826 116.60729 3167 ft 230 kts 178°
2026-05-04 12:45 39.99193 116.60983 3915 ft 242 kts 177°
2026-05-04 12:45 39.97502 116.61318 4638 ft 250 kts 175°
2026-05-04 12:45 39.95743 116.61594 5464 ft 257 kts 177°
2026-05-04 12:45 39.93971 116.61842 6305 ft 262 kts 177°
2026-05-04 12:46 39.92128 116.62112 7050 ft 272 kts 177°
2026-05-04 12:46 39.90217 116.62400 7805 ft 281 kts 177°
2026-05-04 12:46 39.88251 116.62704 8566 ft 288 kts 176°
2026-05-04 12:46 39.86232 116.63020 9328 ft 297 kts 176°
2026-05-04 12:47 39.84156 116.63343 10057 ft 304 kts 176°
2026-05-04 12:47 39.82007 116.63673 10612 ft 321 kts 175°
2026-05-04 12:47 39.79686 116.64024 10823 ft 350 kts 175°
2026-05-04 12:47 39.77169 116.64410 11132 ft 375 kts 175°
2026-05-04 12:48 39.74570 116.64810 11879 ft 387 kts 175°
2026-05-04 12:48 39.71869 116.65224 12845 ft 394 kts 174°
2026-05-04 12:48 39.69123 116.65643 13876 ft 400 kts 174°
2026-05-04 12:48 39.66351 116.66065 14889 ft 403 kts 174°
2026-05-04 12:49 39.63568 116.66618 15942 ft 406 kts 170°
2026-05-04 12:49 39.60795 116.67378 16983 ft 409 kts 169°
2026-05-04 12:49 39.57993 116.68163 17974 ft 414 kts 169°
2026-05-04 12:49 39.55157 116.68935 18814 ft 419 kts 168°
2026-05-04 12:50 39.52422 116.70159 19542 ft 427 kts 154°
2026-05-04 12:50 39.49818 116.72067 20334 ft 432 kts 149°
2026-05-04 12:50 39.47218 116.74073 21144 ft 437 kts 150°
2026-05-04 12:50 39.44578 116.76063 21955 ft 442 kts 150°
2026-05-04 12:51 39.41890 116.78029 22752 ft 447 kts 151°
2026-05-04 12:51 39.39152 116.79989 23487 ft 452 kts 151°
2026-05-04 12:51 39.36381 116.81957 24105 ft 457 kts 151°
2026-05-04 12:51 39.33577 116.83933 24720 ft 462 kts 153°
2026-05-04 12:52 39.30672 116.85634 25296 ft 467 kts 158°
2026-05-04 12:52 39.27609 116.87109 25879 ft 472 kts 160°
2026-05-04 12:52 39.24501 116.88536 26461 ft 477 kts 160°
2026-05-04 12:52 39.21372 116.90034 27018 ft 482 kts 159°
2026-05-04 12:53 39.18233 116.91604 27576 ft 486 kts 158°
2026-05-04 12:53 39.15023 116.92975 27957 ft 489 kts 169°
2026-05-04 12:53 39.11618 116.93158 28336 ft 494 kts 188°
2026-05-04 12:53 39.08308 116.92043 28891 ft 492 kts 205°
2026-05-04 12:54 39.05236 116.90137 29328 ft 492 kts 208°
2026-05-04 12:54 39.02167 116.88258 29714 ft 498 kts 207°
2026-05-04 12:54 38.98999 116.86395 30117 ft 502 kts 206°
2026-05-04 12:54 38.95798 116.84558 30509 ft 505 kts 206°
2026-05-04 12:55 38.92590 116.82735 31030 ft 504 kts 206°
2026-05-04 12:55 38.89391 116.80918 31621 ft 501 kts 206°
2026-05-04 12:55 38.86210 116.79105 32193 ft 499 kts 206°
2026-05-04 12:55 38.83039 116.77298 32710 ft 498 kts 206°
2026-05-04 12:56 38.79872 116.75496 33204 ft 498 kts 206°
2026-05-04 12:56 38.76750 116.73724 33692 ft 497 kts 206°
2026-05-04 12:56 38.73596 116.71936 34170 ft 495 kts 207°
2026-05-04 12:56 38.70451 116.70153 34598 ft 494 kts 207°
2026-05-04 12:57 38.67313 116.68376 35009 ft 493 kts 207°
2026-05-04 12:57 38.64156 116.66671 35405 ft 494 kts 202°
2026-05-04 12:57 38.60791 116.65762 35730 ft 498 kts 188°
2026-05-04 12:57 38.57331 116.65441 36100 ft 498 kts 186°
2026-05-04 12:58 38.53877 116.65187 36476 ft 497 kts 186°
2026-05-04 12:58 38.50473 116.64904 36844 ft 496 kts 187°
2026-05-04 12:58 38.47020 116.64561 36959 ft 500 kts 187°
2026-05-04 12:59 38.40076 116.63762 36983 ft 500 kts 188°
2026-05-04 12:59 38.33199 116.63025 36984 ft 494 kts 184°
2026-05-04 13:00 38.26328 116.63673 37006 ft 498 kts 172°
2026-05-04 13:00 38.19655 116.65893 37006 ft 500 kts 165°
2026-05-04 13:01 38.12991 116.68476 37000 ft 501 kts 166°
2026-05-04 13:01 38.06301 116.70974 36997 ft 502 kts 165°
2026-05-04 13:02 37.99609 116.73531 36996 ft 503 kts 165°
2026-05-04 13:02 37.92909 116.76098 37001 ft 503 kts 165°
2026-05-04 13:03 37.86253 116.78634 37004 ft 503 kts 165°
2026-05-04 13:03 37.79550 116.81180 37004 ft 503 kts 165°
2026-05-04 13:04 37.72847 116.83720 37000 ft 503 kts 165°
2026-05-04 13:04 37.66194 116.86237 36997 ft 502 kts 166°
2026-05-04 13:05 37.59501 116.88764 37012 ft 502 kts 166°
2026-05-04 13:05 37.52811 116.91285 37009 ft 502 kts 166°
2026-05-04 13:06 37.46129 116.93800 36998 ft 501 kts 166°
2026-05-04 13:06 37.39487 116.96294 37008 ft 501 kts 166°
2026-05-04 13:07 37.32809 116.98798 37012 ft 501 kts 166°
2026-05-04 13:07 37.26172 117.01521 37017 ft 502 kts 162°
2026-05-04 13:08 37.19629 117.04604 37013 ft 502 kts 162°
2026-05-04 13:08 37.13127 117.07659 37025 ft 502 kts 162°
2026-05-04 13:09 37.06575 117.10720 37024 ft 503 kts 162°
2026-05-04 13:09 37.00018 117.13778 37033 ft 503 kts 162°
2026-05-04 13:10 36.93460 117.16833 37026 ft 503 kts 162°
2026-05-04 13:10 36.86884 117.19805 37031 ft 501 kts 167°
2026-05-04 13:11 36.80128 117.21438 37041 ft 496 kts 178°
2026-05-04 13:11 36.73268 117.21634 37045 ft 492 kts 185°
2026-05-04 13:12 36.66418 117.21498 37056 ft 493 kts 185°
2026-05-04 13:12 36.59599 117.21420 37058 ft 494 kts 184°
2026-05-04 13:13 36.52729 117.21377 37050 ft 494 kts 184°
2026-05-04 13:13 36.45851 117.21344 37063 ft 495 kts 182°
2026-05-04 13:14 36.38977 117.22354 37070 ft 501 kts 171°